Regional Weather Roundup
Issued by NWS Wakefield, VA

Home | Current Version | Previous Version | Text Only | Print | Product List | Glossary On
Versions: 1 2 3 4 5 6 7 8 9 10 11 12 13 14 15 16 17 18 19 20 21 22 23 24 25 26 27 28 29 30 31 32 33 34 35 36 37 38 39 40 41 42 43 44 45 46 47 48 49
000
ASUS41 KAKQ 281215
RWRAKQ

REGIONAL WEATHER ROUNDUP
NATIONAL WEATHER SERVICE WAKEFIELD VA
800 AM EDT THU MAY 28 2015

Note: "fair" indicates few or no clouds below 12,000 feet with no
significant weather and/or obstructions to visibility. * = Denotes
station may not report precipitation (e.g., rain,snow,etc.),
thunder or fog.

VAZ042-051-052>054-056-281300-
NORTHERN VIRGINIA

CITY           SKY/WX    TMP DP  RH WIND       PRES   REMARKS
WASH NATIONAL  CLOUDY    75  68  78 SW8       30.19R
DULLES         PTSUNNY   72  70  94 CALM      30.19R
FORT BELVOIR   MOSUNNY   72  69  92 VRB2      30.18R
QUANTICO       PTSUNNY   72  66  81 SW9       30.20R
FREDERICKSBRG* MOSUNNY   73  70  88 S5        30.19R
STAFFORD*      MOSUNNY   71  66  83 S5        30.23R
WARRENTON      MOSUNNY   73  68  86 S3        30.19R
CULPEPER*      MOSUNNY   69  66  89 CALM      30.20R
MANASSAS*      SUNNY     72  66  83 S5        30.19R
LEESBURG*      MOSUNNY   72  70  94 S3        30.20R
WINCHESTER     MOSUNNY   73  61  64 W3        30.20R
FRONT ROYAL*   FAIR      70  64  83 S3        30.19R
LURAY*         FAIR      70  68  94 CALM      30.21S
$$

VAZ048-049-060>072-079>083-281300-
CENTRAL AND SOUTH CENTRAL VIRGINIA

CITY           SKY/WX    TMP DP  RH WIND       PRES   REMARKS
RICHMOND       CLOUDY    73  68  84 S7        30.20R
CHESTERFIELD*  NOT AVBL
PETERSBURG*    CLOUDY    73  73 100 S6        30.22R
HANOVER        PTSUNNY   72  68  87 S8        30.21R
TAPPAHANNOCK*  LGT RAIN  72  67  82 S5        30.20R
QUINTON*       CLOUDY    71  69  93 S3        30.20R
CHARLOTTSVILLE MOSUNNY   70  65  84 S3        30.19R
GORDONSVILLE*  FAIR      69  65  90 SW5       30.19R
ORANGE*        MOSUNNY   70  66  88 CALM      30.21R
LOUISA*        SUNNY     70  66  88 S3        30.19R
BUMPASS*       PTSUNNY   69  67  93 CALM      30.20R
FARMVILLE*     CLOUDY    69  69 100 S6        30.19R FOG
CREWE*         PTSUNNY   71  68  90 CALM      30.21R
FORT PICKETT*  FAIR      70  69  96 S5        30.21R
CHASE CITY*    CLOUDY    71  71 100 CALM      30.22R
CLARKSVILLE*   PTSUNNY   68  68 100 S5        30.21R
SOUTH HILL*    CLOUDY    69  68  96 S5        30.27S
LAWRENCEVILLE* CLOUDY    70  70 100 S5        30.22R
EMPORIA*       CLOUDY    70  68  94 SE5       30.25R FOG
$$

VAZ088>098-281300-
SOUTHEAST VIRGINIA

CITY           SKY/WX    TMP DP  RH WIND       PRES   REMARKS
NORFOLK        CLOUDY    74  65  73 SW15      30.23R
VIRGINIA BEACH PTSUNNY   75  66  73 S12       30.23R
NORFOLK NAVAL  CLOUDY    77  66  68 S7        30.24R
WEST POINT*    CLOUDY    74  69  84 S6        30.22S
SALUDA*        FAIR      71  68  90 SW7       30.20R
NEWPORT NEWS   CLOUDY    77  67  71 SW10      30.23R
LANGLEY AFB    CLOUDY    72  67  84 S13       30.22R
FORT EUSTIS    CLOUDY    73  73 100 VRB6      30.21R
WILLIAMSBURG*  CLOUDY    73  72  94 S5        30.23R
HR EXEC AP*    PTSUNNY   72  66  83 S8        30.25S
FRANKLIN*      CLOUDY    71  67  87 S9        30.24R
WAKEFIELD      CLOUDY    72  68  87 S7        30.23R
$$

VAZ020-022-025-037-045-281300-
WEST CENTRAL AND SOUTHWEST VIRGINIA

CITY           SKY/WX    TMP DP  RH WIND       PRES   REMARKS
STAUNTON*      MOSUNNY   68  65  89 CALM      30.25R
WAYNESBORO*    FAIR      66  63  90 CALM      30.24R
HOT SPRINGS VA SUNNY     62  60  94 NW5       30.33R
LYNCHBURG      MOSUNNY   68  66  93 CALM      30.23R
DANVILLE       CLOUDY    69  67  93 W3        30.22R
SOUTH BOSTON*  PTSUNNY   69  67  94 S3        30.22R
MARTINSVILLE   MOSUNNY   67  67 100 CALM      30.25S
ROANOKE        PTSUNNY   70  64  81 NE6       30.25R
BLACKSBURG     MOSUNNY   62  61  96 CALM      30.31R FOG
DUBLIN*        SUNNY     65  65 100 CALM      30.30R
MARION*        SUNNY     64  61  88 W5        30.33R
HILLSVILLE*    CLOUDY    62  62  97 CALM      30.31R
RICHLANDS*     FAIR      67  60  78 CALM      30.31S
WISE*          CLOUDY    70  59  68 CALM      30.32R
ABINGDON*      PTSUNNY   68  63  85 CALM      30.29R
$$

MDZ021>025-VAZ099-100-281300-
SOUTHERN MARYLAND AND THE DELMARVA PENINSULA

CITY           SKY/WX    TMP DP  RH WIND       PRES   REMARKS
PATUXENT RIVER CLOUDY    73  68  84 VRB3      30.19R
BAY BRIDGE APT   N/A    N/A N/A N/A S6        30.18R
LEONARDTOWN    CLOUDY    72  66  83 SW7       30.21R
DOVER          CLOUDY    74  73  96 SW9       30.15R
GEORGETOWN     PTSUNNY   73  68  84 SW8       30.20R
EASTON         PTSUNNY   75  73  94 SW6       30.23R
CAMBRIDGE      PTSUNNY   73  70  88 S6        30.19R
SALISBURY      PTSUNNY   71  67  87 S7        30.20R
OCEAN CITY     CLOUDY    68  65  90 SW12G20   30.21R
WALLOPS ISLAND CLOUDY    67  66  97 S15       30.22R
ACCOMACK*      CLOUDY    72  70  94 S8        30.22R
$$

NCZ012>017-030>032-281300-
NORTH CENTRAL AND EASTERN NORTH CAROLINA

CITY           SKY/WX    TMP DP  RH WIND       PRES   REMARKS
ROANOKE RAPIDS CLOUDY    68  68 100 S7        30.24R
RALEIGH        CLOUDY    70  68  93 SW6       30.24R FOG
ELIZABETH CITY PTSUNNY   73  66  78 SW9       30.25R
AHOSKIE*       PTSUNNY   69  66  88 CALM      30.25R
EDENTON*       CLOUDY    72  66  82 SW8       30.25R
CURRITUCK*     PTSUNNY   73  64  72 SW5       30.25R
KILL DEVIL HLS MOSUNNY   74  64  72 S6        30.24S
MANTEO         CLOUDY    73  64  72 S13       30.25S
CAPE HATTERAS  MOSUNNY   74  60  61 S6        30.26S
TARBORO*       PTSUNNY   71  66  87 S5        30.25R
GOLDSBORO      CLOUDY    70  65  85 CALM      30.23R
WASHINGTON     PTSUNNY   71  65  81 S3        30.26R
GREENVILLE     PTSUNNY   72  66  83 SW5       30.26R
NEW BERN       PTSUNNY   74  64  71 S5        30.26R
WILMINGTON     SUNNY     73  65  75 SE5       30.24S
$$

VAZ048-281300-
ELSEWHERE

CITY           SKY/WX    TMP DP  RH WIND       PRES   REMARKS
HARRISBURG PA  HAZE      72  67  84 CALM      30.16R VSB 1
BALTIMORE      PTSUNNY   73  68  84 SW6       30.17R
ANNAPOLIS      MOSUNNY   73  67  81 MISG      30.18R
ANDREWS AFB    MOSUNNY   73  68  84 SW10      30.18R
PHILADELPHIA   CLOUDY    73  69  87 S6        30.17S
HENDERSON NC   CLOUDY    69  67  92 SW7       30.23S FOG
GREENSBORO     CLOUDY    70  68  94 W6        30.23R FOG
ROCKY MOUNT    PTSUNNY   70  69  97 S6        30.25R FOG
$$

VAZ100-281300-
MARINE

STATION/POSITION TIME  TEMP    WIND        PRES    WAVE   SWELL
                       AIR SEA DIR/SP/G            HT/PER HT/PER
                 (UTC) (F)     (DEG/KT/KT) (MB)    (FT/S) (FT/S)
BRANDYWINE LGT   1100   68 65  210/ 11/ 12 1021.9R
CAPE MAY NJ      1100   65 70  160/  6/  8 1021.5R
LEWES DE         1100   72 61  220/  6/ 10 1021.6R
15NM E FENWICK I 1150   65 62              1022.7R   4/ 5
OCEAN-CITY-INLET 1100   63 63  220/ 14/ 16 1022.4R
WACHAPREAGUE VA  1100   70 74  200/ 10/ 13 1023.0R
THOMAS POINT MD  1200   71 69  220/  7/  8 1022.5R
GOOSES REEF MD   1200   71 69  220/  6/  8 1023.2R   1/ 2
COVE POINT MD    1100   71     220/  9/ 11 1022.3R
SOLOMONS ISLAND  1100      71                N/A
BISHOPS HEAD MD  1100   72 73  200/ 10/ 13 1021.9R
PINEY POINT MD   1100          220/  8/ 10   N/A
CAMBRIDGE MD     1100   73 72  190/  5/  9 1021.6R
LEWISETTA VA     1100   72 75              1021.8R
RAPPAHANNOCK LGT 1100          180/ 12/ 13 1023.4R
STINGRAY PT      1200   73 71  210/  8/ 10 1022.7R   1/ 2
YORK RVR RNG VA  1100   72     220/ 11/ 12 1022.2R
YORKTOWN VA      1100   72 71  210/  7/ 11 1022.5R
JAMESTOWN VA     1200   71 76  200/  4/  6 1022.4R
DOMINION TERM VA 1100   71     200/  9/ 11 1023.3R
KIPTOPEKE VA     1100      75  180/ 10/ 11   N/A
CHES BAY BRIDGE  1100   71 70  190/ 11/ 12 1022.9R
CAPE HENRY VA    1100   71     180/  9/ 15 1022.1R
CHESAPEAKE LGHT  1100   67     190/ 20/ 21 1023.7R
WILLOUBY STN VA  1100   71     200/ 14/ 18 1023.9R
CAPE HENRY BUOY  1128      61                N/A     2/ 7
1ST LANDING BUOY 1200      71              1023.3R
CAPE CHARLES BUO 1126      68                N/A     2/ 6   2/ 6
OFFSHORE WE BUOY 1111      65                N/A     3/ 5   2/ 7
64NM E OF VA BCH 1150   66 63  160/  8/  8 1024.2R   3/ 7   3/ 7
DUCK PIER NC     1100   72 54  180/ 11/ 13 1022.8F
44100 DUCK FRF   1124      64                N/A     2/ 7
44056 DUCK FRF   1111      59                N/A     2/ 6
OREGON INLET NC  1100   73 76  180/  8/ 11 1024.2S
HATTERAS NC      1100   74 75  170/  5/  6 1024.0R
DIAMOND SHLS NC  1150   75 77  180/  4/  6 1024.7R   2/ 8   2/ 8
CAPE LOOKOUT NC  1200   74     100/  6/  6 1024.2R
$$



USA.gov is the U.S. government's official web portal to all federal, state and local government web resources and services.